www.pogodaiklimat.ru

Погода и климат >> Архив погоды >> Австрия >> Feistritz ob Bleiburg


ПОГОДА в Feistritz ob Bleiburg

  • Прогноз погоды в Feistritz ob Bleiburg
  • Монитор погоды в Feistritz ob Bleiburg
  • Климат города

АРХИВ ПОГОДЫ в Feistritz ob Bleiburg

Время (UTC), дата Ветер
(напр.,м/с)
 
Видим.   Явления Облачность Т
(С)
Тd
(С)
f
(%)
Тe
(С)
Тes
(С)
Комфортность P
(гПа)
Po
(гПа)
Тmin
(С)
Tmax
(С)
R
(мм)
R24
(мм)
S
(см)
10 12.07 С 1 н/о н/о +18.8 +13.0 69 +21 +21 комфорт 1016.3 955.8
11 12.07 З 2 н/о н/о +19.1 +13.5 70 +21 +21 комфорт 1016.1 955.6
12 12.07 СЗ 2 20 км 3/1 300 м
[Cu Sc Ac lent]
+20.6 +14.4 68 +24 +37 комфорт 1015.4 955.3
13 12.07 В 1 н/о н/о +21.9 +14.0 61 +25 +25 комфорт 1014.6 954.8
14 12.07 ЮВ 1 н/о н/о +22.9 +13.9 57 +26 +26 жарко 1013.8 954.2
15 12.07 В 3 н/о н/о +23.8 +15.5 60 +27 +27 жарко 1012.8 953.5
16 12.07 В 3 н/о н/о +23.9 +15.9 61 +27 +27 жарко 1012.6 953.3
17 12.07 В 4 н/о н/о +23.0 +16.0 65 +27 +27 душно 1012.7 953.3
18 12.07 В 4 40 км 1/1 1500 м
[Cu hum Ci fib]
+21.3 +15.7 70 +25 +25 комфорт 1013.4 953.6 +13.9
19 12.07 В 3 н/о н/о +19.3 +15.4 78 +21 +21 комфорт 1014.6 954.3
20 12.07 ЮВ 3 н/о н/о +18.2 +15.3 83 +19 +19 1015.5 954.9
21 12.07 В 1 н/о н/о +17.5 +15.3 87 +19 +19 1016.0 955.3
22 12.07 В 1 н/о н/о +17.3 +15.4 89 +18 +18 1016.5 955.7
23 12.07 З 1 н/о н/о +17.4 +15.3 87 +18 +18 1017.2 956.4 0.0
00 13.07 ЮВ 1 н/о осадки н/о +16.9 +15.4 91 +18 +18 1017.4 956.5 3
01 13.07 ЮЗ 1 н/о осадки н/о +16.6 +15.7 94 +17 +17 1018.5 957.4 2
02 13.07 ЮВ 1 н/о ливневой дождь н/о +16.1 +15.1 94 +17 +17 1018.0 956.9 2
03 13.07 Ю 1 н/о в посл. час осадки {ливн. осадки} н/о +15.2 +14.3 94 +16 +16 1018.3 956.9 4
04 13.07 Ю 1 н/о н/о +15.2 +14.2 94 +16 +16 1018.4 957.0 0.0
05 13.07 З 1 2000 м дымка 10/10 50 м
[St]
+15.8 +15.2 96 +16 +16 1018.8 957.5
06 13.07 СЗ 1 2000 м дымка {гроза, дождь} 10/10 50 м
[St]
+16.3 +15.7 96 +17 +17 1018.7 957.6 +15.1 +21.3 7
07 13.07 СЗ 2 н/о н/о +17.0 +15.6 91 +17 +17 1019.0 958.0
08 13.07 СЗ 2 н/о н/о +18.2 +15.7 85 +19 +19 1018.6 957.9
09 13.07 СЗ 2 н/о н/о +19.5 +15.5 78 +22 +22 комфорт 1018.4 957.9
10 13.07 СЗ 1 н/о н/о +22.1 +17.2 74 +27 +27 душно 1017.4 957.5
11 13.07 СВ 1 н/о н/о +23.5 +16.7 66 +27 +27 душно 1016.7 957.1
12 13.07 СЗ 1 30 км 3/1 1000 м
[Cb calv Ac cuf Ci fib]
+24.5 +14.9 55 +27 +44 жарко 1016.0 956.6
13 13.07 З 1 н/о н/о +24.9 +11.8 44 +26 +26 жарко 1015.5 956.2
14 13.07 СЗ 1 н/о н/о +25.9 +11.1 40 +27 +27 жарко 1015.1 956.0
15 13.07 ЮЗ 1 н/о н/о +26.2 +11.5 40 +27 +27 жарко 1014.7 955.7
16 13.07 СЗ 2 н/о н/о +26.2 +13.9 47 +28 +28 жарко 1014.7 955.7
17 13.07 В 3 н/о н/о +24.9 +14.5 52 +27 +27 жарко 1014.8 955.6
18 13.07 ЮВ 1 50 км 1/1 1500 м
[Cu Sc Ac lent]
+23.2 +15.1 60 +27 +28 душно 1015.2 955.6 +16.3 +26.7
19 13.07 ЮВ 1 н/о н/о +19.3 +14.4 73 +22 +22 комфорт 1016.6 956.2
20 13.07 Ю 1 н/о н/о +18.3 +13.3 73 +20 +20 1017.7 957.0
21 13.07 ЮВ 3 н/о н/о +18.2 +14.7 80 +19 +19 1018.2 957.5
22 13.07 Ю 1 н/о н/о +16.2 +13.1 82 +17 +17 1018.7 957.5
23 13.07 штиль 0 н/о н/о +14.7 +12.6 87 +14 +14 1019.3 957.7
00 14.07 штиль 0 н/о н/о +14.2 +12.4 89 +14 +14 1019.4 957.7 0.0
01 14.07 штиль 0 н/о н/о +13.9 +12.3 90 +13 +13 1019.4 957.7
02 14.07 штиль 0 н/о н/о +13.4 +12.0 91 +13 +13 1019.8 957.9
03 14.07 ЮВ 1 н/о н/о +13.1 +11.8 92 +13 +13 1020.1 958.1
04 14.07 штиль 0 н/о н/о +13.9 +12.8 93 +13 +13 1019.9 958.1
05 14.07 штиль 0 40 км 8/6 1500 м
[Cu Sc Ac lent]
+15.5 +13.8 90 +15 +16 1019.6 958.2
06 14.07 С 2 40 км 4/4 1500 м
[Cu Sc]
+17.8 +14.9 83 +18 +21 1019.3 958.4 +12.9 +23.2
07 14.07 С 2 н/о н/о +19.9 +15.8 77 +23 +23 комфорт 1018.8 958.4
08 14.07 штиль 0 н/о н/о +20.8 +14.9 69 +23 +23 комфорт 1018.3 958.1
09 14.07 СЗ 2 н/о н/о +22.2 +15.2 65 +26 +26 душно 1017.6 957.7
10 14.07 СЗ 1 н/о н/о +23.8 +15.2 59 +27 +27 жарко 1016.6 957.1
11 14.07 СЗ 1 н/о н/о +25.5 +13.5 47 +28 +28 жарко 1015.7 956.5
12 14.07 СЗ 1 40 км 8/3 1500 м
[Cb calv Ac lent Ci fib]
+26.2 +12.6 43 +28 +37 жарко 1015.0 956.0
13 14.07 СЗ 1 н/о н/о +27.4 +13.4 42 +29 +29 жарко 1014.0 955.3
14 14.07 СЗ 2 н/о н/о +27.1 +13.9 44 +29 +29 жарко 1013.4 954.7
15 14.07 ЮЗ 3 н/о н/о +25.6 +12.9 45 +27 +27 жарко 1013.7 954.6
16 14.07 В 2 н/о н/о +27.5 +12.6 40 +29 +29 жарко 1012.9 954.2
17 14.07 В 2 н/о н/о +26.3 +14.4 48 +29 +29 жарко 1013.0 954.1
18 14.07 СВ 1 40 км {гроза} 1/1 1500 м
[Cu med, cong Ac lent Ci fib]
+24.4 +15.1 56 +27 +27 жарко 1013.6 954.3 +17.7 +28.5
19 14.07 ЮВ 1 н/о н/о +20.4 +15.2 72 +24 +24 комфорт 1014.3 954.2
20 14.07 ЮЗ 2 н/о н/о +19.9 +14.6 72 +23 +23 комфорт 1016.5 956.2
21 14.07 В 3 н/о в посл. час осадки н/о +19.3 +15.3 78 +21 +21 комфорт 1016.7 956.3 0.2
22 14.07 В 2 н/о н/о +18.3 +14.0 76 +19 +19 1016.9 956.2
23 14.07 штиль 0 н/о н/о +17.2 +13.8 80 +17 +17 1017.4 956.5
00 15.07 штиль 0 н/о {осадки} н/о +16.2 +14.1 87 +16 +16 1017.3 956.2 0.2
01 15.07 В 1 н/о н/о +15.7 +13.6 87 +16 +16 1016.8 955.6
02 15.07 Ю 1 н/о н/о +15.4 +13.3 87 +16 +16 1016.8 955.5
03 15.07 штиль 0 н/о н/о +14.2 +12.8 91 +14 +14 1016.9 955.4
04 15.07 штиль 0 н/о н/о +14.3 +12.9 91 +14 +14 1017.1 955.6
05 15.07 СВ 1 50 км 9/0
[Ac As]
+15.7 +14.2 91 +16 +17 1016.8 955.6
06 15.07 З 1 50 км 9/0
[Ac As]
+16.6 +14.6 88 +17 +19 1016.7 955.7 +14.0 +24.0 0.2
07 15.07 СЗ 2 н/о н/о +17.9 +15.0 83 +18 +18 1016.5 955.8
08 15.07 СЗ 1 н/о н/о +18.8 +15.5 81 +21 +21 комфорт 1016.2 955.7
09 15.07 З 2 н/о н/о +19.7 +15.5 77 +22 +22 комфорт 1015.8 955.5 0.0
10 15.07 СЗ 1 н/о н/о +20.3 +15.3 73 +24 +24 комфорт 1015.7 955.5
11 15.07 В 4 н/о н/о +21.8 +15.2 66 +25 +25 комфорт 1014.6 954.8
12 15.07 В 4 20 км {ливн. осадки} 9/5 600 м
[Cb calv As trans]
+23.6 +15.4 60 +27 +30 жарко 1013.9 954.5 0.0
13 15.07 В 4 н/о н/о +22.8 +14.3 59 +26 +26 жарко 1014.0 954.4
14 15.07 С 3 н/о осадки н/о +19.3 +15.4 78 +21 +21 комфорт 1015.7 955.3 0.2
15 15.07 Ю 1 н/о в посл. час осадки н/о +19.3 +16.2 82 +22 +22 комфорт 1015.0 954.7 0.7
16 15.07 СЗ 1 н/о н/о +21.8 +16.3 71 +26 +26 душно 1014.4 954.6
17 15.07 ЮВ 1 н/о н/о +20.0 +15.6 76 +24 +24 комфорт 1014.4 954.3
18 15.07 штиль 0 15 км осадки на расстоянии {гроза, дождь} 6/4 1000 м
[Cb calv Ac lent]
+20.3 +16.0 76 +23 +23 комфорт 1014.5 954.4 +16.6 +23.9 0.7
19 15.07 Ю 2 н/о н/о +18.0 +14.9 82 +19 +19 1014.8 954.2
20 15.07 Ю 1 н/о н/о +15.7 +13.3 86 +16 +16 1015.4 954.3
21 15.07 штиль 0 н/о н/о +14.7 +13.0 90 +14 +14 1016.3 954.9
22 15.07 Ю 1 н/о н/о +14.5 +13.0 91 +15 +15 1016.7 955.3
23 15.07 С 1 н/о н/о +13.5 +12.4 93 +14 +14 1017.0 955.3
00 16.07 ЮВ 1 н/о н/о +13.5 +12.6 94 +14 +14 1016.4 954.8
01 16.07 штиль 0 н/о н/о +13.2 +12.2 94 +13 +13 1016.3 954.6
02 16.07 штиль 0 н/о н/о +12.9 +11.9 94 +12 +12 1016.0 954.2
03 16.07 ЮВ 1 н/о н/о +12.6 +11.6 94 +13 +13 1015.8 954.0
04 16.07 штиль 0 н/о н/о +13.3 +12.4 94 +13 +13 1015.4 953.8
05 16.07 СЗ 1 2000 м дымка 10/10 50 м
[St]
+14.1 +13.4 96 +14 +14 1015.9 954.4
06 16.07 С 1 4000 м дымка 10/10 100 м
[St]
+15.3 +14.3 94 +16 +16 1015.4 954.2 +12.3 +20.2
07 16.07 В 1 н/о н/о +16.6 +14.5 87 +17 +17 1014.3 953.5
08 16.07 СЗ 2 н/о н/о +17.3 +14.9 86 +18 +18 1014.0 953.3
09 16.07 штиль 0 н/о н/о +18.2 +15.2 83 +18 +18 1014.0 953.5
10 16.07 В 1 н/о н/о +19.3 +15.7 80 +22 +22 комфорт 1013.3 953.1
11 16.07 СЗ 1 н/о н/о +20.4 +15.8 75 +24 +24 комфорт 1012.5 952.6
12 16.07 СЗ 2 40 км 4/1 1000 м
[Cu Sc Ac lent Ci fib]
+22.5 +16.1 67 +27 +40 душно 1011.2 951.8
13 16.07 В 1 н/о н/о +24.4 +16.4 61 +28 +28 душно 1009.7 950.7
14 16.07 ЮВ 1 н/о н/о +25.3 +16.4 58 +29 +29 душно 1008.9 950.1
15 16.07 Ю 1 н/о н/о +24.7 +15.8 58 +28 +28 душно 1008.9 950.0
16 16.07 штиль 0 н/о осадки н/о +19.9 +13.8 68 +22 +22 комфорт 1010.7 950.7 0.4
17 16.07 ЮЗ 1 н/о ливневой дождь н/о +17.9 +14.9 83 +19 +19 1011.7 951.3 0.6
18 16.07 СВ 3 н/о в посл. час осадки {ливн. осадки} н/о +17.4 +15.7 90 +17 +17 1010.8 950.4 +15.2 +26.2 1
19 16.07 Ю 2 н/о н/о +17.0 +15.0 88 +17 +17 1011.5 950.9
20 16.07 Ю 2 н/о н/о +16.1 +14.6 91 +16 +16 1012.0 951.2
21 16.07 В 1 н/о н/о +15.2 +14.2 94 +16 +16 1011.8 950.8
22 16.07 З 2 н/о н/о +15.2 +14.4 95 +15 +15 1012.0 951.0
23 16.07 З 3 н/о н/о +16.6 +13.3 81 +16 +16 1011.2 950.5
00 17.07 ЮЗ 1 н/о н/о +15.1 +13.3 89 +16 +16 1011.5 950.5
01 17.07 штиль 0 н/о н/о +14.6 +13.4 93 +14 +14 1011.9 950.8
02 17.07 З 1 н/о н/о +14.1 +13.2 94 +14 +14 1012.1 950.9
03 17.07 З 1 н/о н/о +13.3 +12.5 95 +13 +13 1011.9 950.5
04 17.07 штиль 0 н/о н/о +13.8 +13.0 95 +13 +13 1012.3 951.0
05 17.07 СЗ 1 н/о н/о +14.6 +13.6 94 +15 +15 1012.6 951.4
06 17.07 З 1 н/о н/о +16.4 +14.6 89 +17 +17 1012.2 951.5 +13.0 +17.6
07 17.07 СЗ 3 н/о н/о +17.6 +14.8 84 +18 +18 1012.1 951.6 0.0
08 17.07 СЗ 3 н/о н/о +18.7 +14.4 76 +20 +20 1011.7 951.4
09 17.07 СЗ 4 н/о н/о +21.6 +13.1 58 +24 +24 комфорт 1010.9 951.2 0.0
10 17.07 З 3 н/о н/о +22.8 +12.5 52 +26 +26 жарко 1010.8 951.4
11 17.07 З 3 н/о н/о +23.0 +13.0 53 +26 +26 жарко 1010.8 951.4
12 17.07 ЮВ 2 н/о в посл. час осадки н/о +18.9 +16.8 88 +21 +21 комфорт 1012.1 951.9 2
13 17.07 В 2 н/о н/о +21.8 +16.2 70 +26 +26 душно 1011.4 951.8 0.0
14 17.07 С 1 н/о н/о +23.6 +14.0 55 +26 +26 жарко 1010.4 951.2
15 17.07 СЗ 1 н/о н/о +23.8 +11.8 47 +25 +25 комфорт 1010.1 950.9 0.0
16 17.07 З 3 н/о н/о +23.9 +12.4 49 +26 +26 жарко 1010.2 951.0
17 17.07 З 4 н/о н/о +24.0 +11.5 45 +25 +25 комфорт 1010.3 951.1
18 17.07 З 3 н/о н/о +22.8 +9.3 42 +24 +24 комфорт 1010.8 951.3 +15.9 +25.2 2
19 17.07 З 2 н/о н/о +20.8 +9.3 48 +23 +23 комфорт 1011.4 951.5
20 17.07 штиль 0 н/о н/о +17.8 +10.5 62 +18 +18 1013.0 952.4
21 17.07 З 2 н/о н/о +19.4 +8.6 50 +21 +21 комфорт 1012.6 952.3
22 17.07 штиль 0 н/о н/о +15.9 +10.1 68 +16 +16 1013.7 952.7
23 17.07 З 1 н/о н/о +15.1 +10.1 72 +16 +16 1013.9 952.7
00 18.07 З 1 н/о н/о +15.0 +10.1 72 +16 +16 1014.4 953.1
01 18.07 ЮВ 1 н/о н/о +13.9 +10.2 78 +14 +14 1014.6 953.1
02 18.07 Ю 1 н/о н/о +13.0 +10.0 82 +13 +13 1014.8 953.1
03 18.07 штиль 0 н/о н/о +12.5 +9.9 84 +12 +12 1015.1 953.3
04 18.07 В 1 н/о н/о +11.9 +9.9 88 +12 +12 1015.3 953.3
05 18.07 штиль 0 н/о н/о +15.2 +11.5 79 +15 +15 1014.4 953.2
06 18.07 штиль 0 н/о н/о +17.5 +12.2 71 +18 +18 1014.3 953.6 +11.2 +23.6
07 18.07 С 1 н/о н/о +20.3 +13.2 64 +24 +24 комфорт 1013.8 953.7
08 18.07 СЗ 3 н/о н/о +21.8 +11.9 53 +24 +24 комфорт 1013.4 953.6
09 18.07 СЗ 4 н/о н/о +23.6 +12.4 49 +25 +25 комфорт 1012.9 953.5
10 18.07 З 4 н/о н/о +25.4 +13.1 46 +27 +27 жарко 1012.5 953.5
11 18.07 З 3 н/о н/о +25.9 +11.6 41 +27 +27 жарко 1012.3 953.3
12 18.07 СЗ 5 н/о н/о +25.1 +11.3 42 +26 +26 жарко 1012.2 953.1
13 18.07 З 3 н/о н/о +26.3 +9.9 36 +27 +27 жарко 1011.8 952.9
14 18.07 З 3 н/о н/о +26.9 +11.9 39 +28 +28 жарко 1011.3 952.6 0.0
15 18.07 З 3 н/о н/о +27.4 +10.1 34 +28 +28 жарко 1010.8 952.2 0.0
16 18.07 З 3 н/о н/о +27.6 +8.8 31 +28 +28 жарко 1010.5 951.9
17 18.07 СЗ 4 н/о н/о +27.1 +7.7 29 +27 +27 жарко 1010.7 952.0
18 18.07 СЗ 3 н/о н/о +25.5 +8.4 34 +26 +26 жарко 1011.5 952.5 +17.2 +27.7 0.0
19 18.07 ЮЗ 1 н/о н/о +21.8 +10.2 48 +24 +24 комфорт 1012.4 952.6
20 18.07 штиль 0 н/о н/о +20.4 +8.9 48 +21 +21 комфорт 1013.2 953.1
21 18.07 З 1 н/о н/о +19.0 +9.7 55 +21 +21 комфорт 1013.6 953.2
22 18.07 штиль 0 н/о н/о +16.4 +11.0 70 +16 +16 1014.5 953.5
23 18.07 Ю 1 н/о н/о +15.8 +10.6 71 +17 +17 1015.1 954.0
00 19.07 штиль 0 н/о н/о +14.7 +10.4 75 +14 +14 1015.4 954.0
01 19.07 штиль 0 н/о н/о +14.4 +9.8 74 +14 +14 1015.5 954.0
02 19.07 штиль 0 н/о н/о +13.3 +9.8 79 +13 +13 1015.7 954.0
03 19.07 Ю 1 н/о н/о +12.7 +9.7 82 +13 +13 1015.8 954.0
04 19.07 штиль 0 н/о н/о +11.8 +9.6 86 +11 +11 1016.2 954.2
05 19.07 штиль 0 н/о н/о +15.6 +10.9 74 +15 +15 1015.7 954.5
06 19.07 С 1 н/о н/о +17.2 +12.4 73 +18 +18 1015.3 954.5 +11.7 +25.8
07 19.07 С 2 н/о н/о +18.1 +11.8 67 +19 +19 1015.0 954.4
08 19.07 СЗ 2 н/о н/о +22.4 +12.8 55 +25 +25 комфорт 1013.7 954.0 0.0

 

Местоположение метеостанции Feistritz ob Bleiburg (Австрия): широта 46.57 долгота 14.77 высота над уровнем моря 527 м.

В архиве по умолчанию представлена погода в Feistritz ob Bleiburg за последнюю неделю. Архивные данные за месяц целиком и за предыдущие месяцы, начиная с января 2011 года, Вы можете получить, выбрав интересующий диапазон дат из раскрывающегося списка и нажав кнопку "Ввод!".


*Определитесь, кто Вы:
робот инопланетянин человек

Внимание! Время в таблицах - всемирное. Для получения местного времени необходимо прибавить поправку, которая в Feistritz ob Bleiburg равна 1 ч.

Смотрите также архив погоды в соседних городах и на ближайших метеорологических станциях:

Погода в Eisenkappel-Vellach (Австрия) (16 км)
Погода в St. Andrae I.L. (Австрия) (23 км)
Погода в Slovenj Gradec (Словения) (29 км)
Погода в Klagenfurt Flughafen (Австрия) (35 км)
Погода в Klagenfurt Flughafen (Австрия) (35 км)
Погода в Preitenegg (Австрия) (42 км)
Погода в Deutschlandsberg (Австрия) (45 км)
Погода в Ljubljana (Словения) (45 км)
Погода в Poertschach (Австрия) (46 км)
Погода в Lesce (Словения) (50 км)

Пояснения к столбцам:

Ветер - указаны скорость ветра в м/с - средняя за 10 мин, порывы в срок и между сроками (в фигурных скобках) и направление, откуда дует ветер: С - северный, СВ - северо-восточный, В - восточный, ЮВ - юго-восточный, Ю - южный, ЮЗ - юго-западный, З - западный, СЗ - северо-западный.
Видимость - горизонтальная дальность видимости в метрах или километрах. При видимости от 1 до 10 км при отсутствии осадков обычно наблюдается дымка, при ухудшении видимости до 1 км и менее - туман. В сухую погоду видимость может ухудшаться дымом, пылью или мглою.
Явления - указаны атмосферные явления, наблюдавшиеся в срок или в последний час перед сроком; фигурными скобками обозначены явления, наблюдавшиеся между сроками (за 1-3 часа до срока); квадратными скобками обозначены град или гололедные отложения с указанием их диаметра в мм.
Облачность - указаны через наклонную черту общая и нижняя облачность в баллах и высота нижней границы облаков в метрах; квадратными скобками обозначены формы облаков: Ci - перистые, Cs - перисто-слоистые, Cc - перисто-кучевые, Ac - высококучевые, As - высокослоистые, Sc - слоисто-кучевые, Ns - слоисто-дождевые, Cu - кучевые, Cb - кучево-дождевые. Подробнее классификацию облаков см. в Атласе облаков (PDF).
T - Температура воздуха - температура, измеренная на высоте 2 м над землей.
Td - Температура точки росы - температура, при понижении до которой содержащийся в воздухе водяной пар достигнет насыщения.
f - Относительная влажность воздуха - влажноcть воздуха, измеренная на высоте 2 м над землей.
Te - Эффективная температура - температура, которую ощущает одетый по сезону человек в тени. Характеристика душности погоды. При расчете учитывается влияние влажности воздуха и скорости ветра на теплоощущения человека.
Tes - Эффективная температура на солнце - температура, которую ощущает человек, с поправкой на солнечный нагрев. Характеристика знойности погоды. Зависит от высоты солнца над горизонтом, облачности и скорости ветра. Ночью, в пасмурную погоду, а также при ветре 12 м/с и более поправка равна нулю.
P - Атмосферное давление - приведенное к уровню моря атмосферное давление.
Po - Атмосферное давление - измеренное на уровне метеостанции атмосферное давление.
Tmin - Минимальная температура - минимум температуры воздуха на высоте 2 м над землей.
Tmax - Максимальная температура - максимум температуры воздуха на высоте 2 м над землей.
R - Количество осадков - Количество выпавших осадков за период времени, мм. При наведении курсора мыши на число - период времени, за который выпало указанное количество осадков.
R24 - Количество осадков - Количество выпавших осадков за 24 часа, мм.
S - Снежный покров - Высота снежного покрова, см. При наведении курсора мыши на число - состояние снежного покрова и степень покрытия местности в баллах.